Terminal Aerodrome Forecast
Issued by NWS Chicago, IL

Home | Current Version | Previous Version | Graphics & Text | Print | Product List | Glossary On
Versions: 1 2 3 4 5 6 7 8 9 10 11 12 13 14 15 16 17 18 19 20 21 22 23 24 25 26 27 28 29 30 31
000
FTUS43 KLOT 272328
TAFRFD
TAF
KRFD 272328Z 2800/2824 24007KT P6SM BKN030
     FM280500 VRB03KT P6SM BKN100
     FM281300 14005KT P6SM BKN080
     FM282000 12008KT P6SM -SHRA OVC035=

USA.gov is the U.S. government's official web portal to all federal, state and local government web resources and services.